Location: Clatteringshaws Loch
(55.0508°N, 4.2860°W)
Time: 06:02:37
(UTC+01:00)

Daily predictions for brighter satellites

Satellite Brightness Start Highest point End
(mag) Time Altitude Azimuth Time Altitude Azimuth Time Altitude Azimuth
Cosmos 292 Rocket 4.4 22:15:20 10° SW 22:20:08 63° WNW 22:24:56 10° NNE
Cosmos 2056 Rocket 3.6 22:17:00 10° NNW 22:22:15 84° WSW 22:27:25 10° SSE
Cosmos 1441 Rocket 3.1 22:19:10 10° S 22:22:53 70° ESE 22:26:39 10° NNE
Cosmos 2341 Rocket 4.1 22:18:59 10° N 22:25:21 79° ENE 22:31:44 10° SSE
SL-08 RB Rocket 3.8 22:21:35 10° SSE 22:26:04 80° WSW 22:30:35 10° NNW
Cosmos 1680 Rocket 3.5 22:21:09 10° SSW 22:26:21 69° ESE 22:31:34 10° NNE
Cosmos 2082 Rocket 3.8 22:23:43 10° SE 22:27:03 16° E 22:30:22 10° ENE
Landsat 7 3.9 22:25:42 10° SSE 22:30:26 71° ENE 22:35:13 10° NNW
SPOT 5 3.1 22:26:50 10° S 22:31:07 61° WSW 22:35:28 10° NNW
PSLV R/B 4.3 22:29:28 10° SE 22:31:54 27° ENE 22:34:22 10° N
Aureole 3 Rocket 3.9 22:27:40 10° SSW 22:33:34 67° WNW 22:37:48 10° N
Cosmos 2369 3.8 22:29:24 10° NW 22:35:11 88° WSW 22:40:56 10° SSE
H-2A R/B 2.4 22:33:46 10° SSE 22:38:13 61° ENE 22:42:43 10° N
SL-27 R/B 2.5 22:37:23 10° SSW 22:41:01 68° ESE 22:44:40 10° NNE
Cosmos 2218 Rocket 4.2 22:35:57 10° N 22:42:03 60° ENE 22:48:08 10° SSE
NOSS 2-2 (E) 3.7 22:38:59 10° SW 22:43:16 76° SE 22:48:38 10° NE
Iridium 43 3.5 22:41:24 10° N 22:43:41 54° E 22:45:39 12° SSE
SL-16 R/B 3.8 22:40:10 10° NNW 22:45:03 28° NNE 22:49:57 10° E
Terra 1.9 22:40:46 10° SSE 22:45:30 70° ENE 22:50:16 10° NNW
Cosmos 1697 Rocket 2.9 22:39:57 10° NNW 22:45:35 67° NE 22:51:11 10° SE
SPOT 1/Viking Rocket 3.9 22:43:24 10° S 22:48:31 63° WSW 22:53:40 10° NNW
Aureole 1 Rocket 2.1 22:47:53 10° SSW 22:51:01 87° WNW 22:54:02 10° NNE
Spot 4 4.4 22:47:55 10° SE 22:52:32 50° ENE 22:57:12 10° N
Cosmos 1452 Rocket 3.6 22:49:14 10° NNW 22:54:32 83° ENE 22:59:34 11° SSE
Cosmos 1437 Rocket 3.9 22:54:56 10° NNW 22:58:30 38° W 23:02:05 10° SSW
Meteor 2-4 Rocket 4.4 22:54:51 10° SSW 23:00:28 61° WNW 23:06:18 10° N
Okean 1-7 Rocket 4.3 22:57:26 10° SSW 23:01:50 57° WNW 23:06:19 10° N
Cosmos 1953 4.1 23:01:17 10° N 23:04:33 23° ENE 23:07:49 10° ESE
Cosmos 2181 Rocket 4.1 23:00:11 10° S 23:06:33 79° E 23:12:52 10° NNE
Cosmos 1656 3.7 23:01:33 10° NW 23:07:00 73° WSW 23:11:59 13° SSE
USA 267 4.4 23:02:47 10° E 23:07:27 20° SE 23:12:04 10° S
Okean 2 3.8 23:03:41 10° SSW 23:07:45 65° WNW 23:11:51 10° N
COSMOS 2487 3.4 23:05:49 13° SSE 23:08:32 31° ESE 23:11:44 10° NE
NOSS 3-1 (C) 4.4 23:01:45 10° NW 23:08:40 61° NNE 23:16:34 10° ESE
Cosmos 1833 Rocket 3.6 23:06:30 11° SSE 23:10:57 29° ESE 23:15:44 10° NE
IGS 5A 3.6 23:07:17 11° S 23:11:13 76° WSW 23:15:25 10° NNW
Cosmos 2228 3.3 23:07:45 10° NNW 23:12:04 64° W 23:16:16 10° S
DELTA 2 DEB (DPAF) 4.4 23:08:23 13° SSE 23:12:20 62° ENE 23:16:48 10° N
Cosmos 1809 Rocket 4.5 23:08:34 10° NNW 23:14:41 88° ENE 23:20:24 12° S
Cosmos 1066 Rocket 4.4 23:09:27 10° S 23:14:49 57° E 23:20:21 10° NNE
deb Chang Zheng 4 3.9 23:11:22 10° NNE 23:15:36 49° E 23:19:26 12° S
Cosmos 1892 Rocket 3.6 23:11:10 10° SSW 23:15:37 84° W 23:20:04 10° N
Cosmos 1271 Rocket 3.4 23:13:16 10° N 23:16:59 44° ENE 23:20:02 14° SE
Iridium 2 4.4 23:13:43 10° N 23:17:23 41° ENE 23:20:13 15° SE
Cosmos 921 Rocket 4.0 23:14:01 10° NW 23:18:16 42° WSW 23:22:27 10° S
Cosmos 1602 Rocket 4.0 23:19:15 14° SSE 23:22:45 46° E 23:26:54 10° NNE
ISS -2.4 23:20:44 10° SSW 23:23:11 19° SSE 23:25:39 10° ESE
CZ-4 R/B 4.2 23:19:35 10° NNE 23:24:30 52° E 23:28:54 13° S
ATLAS CENTAUR R/B 2.6 23:22:20 10° NW 23:25:52 35° NNE 23:29:16 10° E
NOSS 2-2 (D) 4.1 23:22:00 10° WSW 23:26:19 71° NW 23:31:46 10° NE
Cosmos 2360 Rocket 4.0 23:25:35 10° NNW 23:30:26 28° NNE 23:35:15 10° E
Lacrosse 5 rocket 1.9 23:26:09 10° WNW 23:30:48 73° N 23:35:27 10° E
Cosmos 1980 Rocket 2.2 23:26:37 10° NNW 23:32:21 85° NE 23:37:09 15° SE
USA 229 DEB 3.8 23:26:08 10° NW 23:33:14 82° SW 23:39:57 12° SE
USA 229 3.8 23:26:14 10° NW 23:33:20 82° SW 23:40:04 12° SE
Cosmos 1766 3.2 23:32:00 10° NNW 23:35:57 89° ENE 23:38:54 17° S
H-2A R/B 3.4 23:32:41 10° SSW 23:37:02 30° W 23:41:30 10° NNW
Meteor 2-16 Rocket 4.5 23:30:54 10° NNW 23:37:05 86° ENE 23:42:18 15° SSE
DMSP B5D2-2 4.2 23:33:23 10° NNE 23:38:42 80° WNW 23:43:59 10° SSW
ATLAS 2AS CENTAUR R/B 4.2 23:31:05 10° WNW 23:38:56 47° N 23:46:38 10° E
Cosmos 2058 Rocket 4.5 23:35:33 10° NNW 23:39:30 33° W 23:43:27 10° SSW
NOSS 3-1 (A) 4.3 23:32:41 10° NW 23:39:43 66° NNE 23:47:42 10° ESE
Cosmos 2322 Rocket 3.0 23:35:01 10° NNW 23:40:33 49° NE 23:46:05 10° ESE
Cosmos 1758 3.8 23:39:44 10° N 23:43:42 51° ENE 23:46:30 18° SE
Meteor 1-4 Rocket 3.5 23:41:06 10° NNW 23:44:35 41° W 23:47:24 14° SSW
Meteor 1-22 Rocket 4.4 23:41:08 10° NNW 23:46:22 64° W 23:50:52 14° S
USA 234 3.2 23:40:23 10° ESE 23:46:57 81° SSW 23:53:32 10° WNW
SeaSat 1 2.5 23:47:19 15° SE 23:51:23 86° NE 23:56:22 10° NNW
Cosmos 2366 rocket 4.4 23:45:32 10° NNW 23:51:37 58° W 23:57:10 12° S
Cosmos 1470 3.9 23:49:46 10° N 23:53:28 35° ENE 23:56:15 15° SE
